Terminal Aerodrome Forecast
Issued by NWS

Home | Current Version | Previous Version | Text Only | Print | Product List | Glossary On
Versions: 1 2 3 4 5 6 7 8 9 10 11 12 13 14 15 16 17 18 19 20
000
FTUS43 KEAX 031100
TAFSTJ
TAF
KSTJ 031127Z 0312/0412 15008KT 6SM -TSRA SCT040 BKN050CB
      TEMPO 0312/0314 3SM -TSRA BKN015CB
     FM031600 17011KT P6SM SCT040
     FM040100 16009KT P6SM VCTS BKN040CB
     FM040600 16005KT P6SM SCT040 SCT100=

USA.gov is the U.S. government's official web portal to all federal, state and local government web resources and services.